FW4510 Weather Reports


time (UTC)temp
C
wind
direction
speed
KPH
gust
KPH
rain 1hr
cm
rain 24hr
cm
rain mn
cm
humidity
%
barometer
mb
20260507213007 26 36 4.8 14.5 0.00 0.00 0.00 15 1009.4
20260507211506 26 290 1.6 14.5 0.00 0.00 0.00 14 1009.4
20260507210006 28 355 3.2 17.7 0.00 0.00 0.00 15 1009.4
20260507204500 25 50 4.8 9.7 0.00 0.00 0.00 16 1009.8
20260507203100 25 49 3.2 16.1 0.00 0.00 0.00 16 1009.9
20260507201558 26 259 4.8 9.7 0.00 0.00 0.00 15 1009.8
20260507200055 25 259 1.6 11.3 0.00 0.00 0.00 16 1010.2
20260507194554 25 259 1.6 19.3 0.00 0.00 0.00 16 1010.4
20260507193057 26 257 8.0 16.1 0.00 0.00 0.00 16 1010.6
20260507191548 26 257 3.2 19.3 0.00 0.00 0.00 16 1010.7
20260507190047 26 253 6.4 12.9 0.00 0.00 0.00 17 1011.0
20260507184548 25 253 6.4 14.5 0.00 0.00 0.00 17 1011.4
20260507183043 26 254 1.6 14.5 0.00 0.00 0.00 17 1011.4
20260507181542 25 254 3.2 8.0 0.00 0.00 0.00 17 1011.5
20260507180041 25 251 6.4 22.5 0.00 0.00 0.00 17 1011.5
20260507174556 25 251 4.8 20.9 0.00 0.00 0.00 17 1011.5
20260507173036 24 246 8.0 17.7 0.00 0.00 0.00 19 1011.7
20260507171545 23 177 3.2 9.7 0.00 0.00 0.00 18 1011.8
20260507170033 23 180 6.4 11.3 0.00 0.00 0.00 19 1012.0
20260507164530 22 181 4.8 9.7 0.00 0.00 0.00 20 1012.3
20260507163028 22 178 0.0 4.8 0.00 0.00 0.00 22 1012.3
20260507161527 22 178 0.0 6.4 0.00 0.00 0.00 25 1012.7
20260507160021 20 178 3.2 9.7 0.00 0.00 0.00 26 1012.8
20260507154520 20 178 0.0 9.7 0.00 0.00 0.00 28 1013.1
20260507153019 19 178 4.8 11.3 0.00 0.00 0.00 29 1013.3
20260507151513 17 188 3.2 11.3 0.00 0.00 0.00 31 1013.5
20260507150017 18 188 3.2 11.3 0.00 0.00 0.00 31 1013.4
20260507144509 17 188 1.6 4.8 0.00 0.00 0.00 32 1013.5
20260507143007 16 188 0.0 0.0 0.00 0.00 0.00 33 1013.3
20260507141502 15 188 0.0 3.2 0.00 0.00 0.00 37 1013.4
20260507140113 14 188 3.2 6.4 0.00 0.00 0.00 38 1013.6
20260507134559 13 192 0.0 8.0 0.00 0.00 0.00 41 1013.6
20260507133100 11 255 0.0 0.0 0.00 0.00 0.00 47 1013.5
20260507131616 9 255 0.0 0.0 0.00 0.00 0.00 52 1013.5
20260507130052 8 255 0.0 0.0 0.00 0.00 0.00 52 1013.4
20260507124600 8 255 0.0 0.0 0.00 0.00 0.00 53 1013.1
20260507123054 7 255 0.0 0.0 0.00 0.00 0.00 55 1013.1
20260507121548 8 255 0.0 0.0 0.00 0.00 0.00 52 1013.0
20260507120047 9 255 0.0 0.0 0.00 0.00 0.00 50 1012.9
20260507114547 10 255 0.0 0.0 0.00 0.00 0.00 48 1012.9
20260507113106 10 255 0.0 0.0 0.00 0.00 0.00 49 1013.1
20260507111544 9 255 0.0 0.0 0.00 0.00 0.00 51 1013.1
20260507110043 10 255 0.0 0.0 0.00 0.00 0.00 49 1013.1
20260507104554 9 255 0.0 0.0 0.00 0.00 0.00 50 1013.1
20260507103042 9 255 0.0 0.0 0.00 0.00 0.00 51 1013.0
20260507101539 10 255 0.0 0.0 0.00 0.00 0.00 48 1013.0
20260507100051 11 255 0.0 3.2 0.00 0.00 0.00 46 1013.2
20260507094539 9 255 0.0 0.0 0.00 0.00 0.00 50 1013.2
20260507093036 10 255 0.0 0.0 0.00 0.00 0.00 49 1013.2
20260507091539 10 255 0.0 0.0 0.00 0.00 0.00 47 1013.2
20260507090030 11 255 0.0 3.2 0.00 0.00 0.00 45 1013.3
20260507084545 11 255 0.0 1.6 0.00 0.00 0.00 46 1013.4
20260507083027 11 255 0.0 3.2 0.00 0.00 0.00 46 1013.6
20260507081524 11 255 0.0 4.8 0.00 0.00 0.00 44 1013.8
20260507080022 11 255 0.0 1.6 0.00 0.00 0.00 46 1013.9
20260507074522 11 255 0.0 3.2 0.00 0.00 0.00 44 1014.0
20260507073024 11 255 0.0 0.0 0.00 0.00 0.00 47 1014.0
20260507071518 12 255 0.0 0.0 0.00 0.00 0.00 43 1014.1
20260507070019 12 255 0.0 0.0 0.00 0.00 0.00 42 1014.2
20260507064513 12 255 0.0 1.6 0.00 0.00 0.00 41 1014.1
20260507063015 12 255 0.0 3.2 0.00 0.00 0.00 41 1014.1
20260507061513 13 255 0.0 1.6 0.00 0.00 0.00 39 1014.0
20260507060017 13 255 0.0 3.2 0.00 0.00 0.00 38 1014.0
20260507054511 15 255 0.0 0.0 0.00 0.00 0.00 37 1014.0
20260507053010 15 255 0.0 0.0 0.00 0.00 0.00 35 1013.9
20260507051510 16 255 0.0 3.2 0.00 0.00 0.00 32 1013.9
20260507050029 16 255 0.0 3.2 0.00 0.00 0.00 33 1013.8
20260507044516 16 255 0.0 3.2 0.00 0.00 0.00 33 1013.6
20260507043008 16 255 0.0 1.6 0.00 0.00 0.00 33 1013.5
20260507041508 17 255 0.0 3.2 0.00 0.00 0.00 31 1013.3
20260507040007 17 255 0.0 3.2 0.00 0.00 0.00 30 1013.2
20260507034507 18 255 0.0 8.0 0.00 0.00 0.00 29 1012.9
20260507033007 18 255 3.2 6.4 0.00 0.00 0.00 29 1012.8
20260507031507 18 255 4.8 8.0 0.00 0.00 0.00 27 1012.7
20260507030006 18 255 0.0 0.0 0.00 0.00 0.00 28 1012.5
20260507024506 19 255 0.0 0.0 0.00 0.00 0.00 27 1012.3
20260507023005 20 255 0.0 0.0 0.00 0.00 0.00 25 1012.1
20260507021506 20 255 0.0 0.0 0.00 0.00 0.00 24 1012.1
20260507020003 21 255 0.0 4.8 0.00 0.00 0.00 23 1011.9
20260507014502 22 255 1.6 6.4 0.00 0.00 0.00 21 1011.9
20260507013001 23 255 1.6 8.0 0.00 0.00 0.00 21 1011.9
20260507011605 23 255 8.0 16.1 0.00 0.00 0.00 21 1011.8
20260507004559 24 254 3.2 14.5 0.00 0.00 0.00 21 1012.0
20260507003059 23 254 8.0 17.7 0.00 0.00 0.00 21 1011.8
20260507001605 24 252 4.8 12.9 0.00 0.00 0.00 21 1011.7
20260507000058 25 253 6.4 20.9 0.00 0.00 0.00 22 1011.7
20260506234624 24 254 9.7 19.3 0.00 0.00 0.00 22 1011.8
20260506233055 24 257 1.6 11.3 0.00 0.00 0.00 20 1011.9
20260506231556 25 254 8.0 19.3 0.00 0.00 0.00 20 1011.9
20260506230054 25 241 12.9 27.4 0.00 0.00 0.00 21 1012.2
20260506224550 24 360 0.0 8.0 0.00 0.00 0.00 21 1012.3
20260506223055 25 261 3.2 11.3 0.00 0.00 0.00 19 1012.4
20260506221545 23 257 9.7 19.3 0.00 0.00 0.00 21 1012.6
20260506220045 23 239 1.6 14.5 0.00 0.00 0.00 17 1012.7
20260506214544 23 238 1.6 14.5 0.00 0.00 0.00 21 1012.7